Flag for Germany Weather past 2 weeks in Rietberg, North Rhine-Westphalia, Germany

Now
57 °F

Partly sunny.


Feels Like: 57 °F
Forecast: 52 / 67 °F
Wind: 5 mph from West

Location: Paderborn / Lippstadt

Current Time: Sep 1, 2014 at 8:54:12 PM

Latest Report: Sep 1, 2014 at 8:20 PM


Visibility: N/A

Pressure: 30.12 "Hg

Humidity: 94%

Dew point: 55 °F

Location of RietbergLocation

Historic Weather in Rietberg — Graph

°F

Rietberg temperature yesterday

Maximum temperature yesterday: 61 °F (at 1:20 PM)
Minimum temperature yesterday: 52 °F (at 10:50 PM)
Average temperature yesterday: 56 °F

Past Weeks' High & Low Weather Summary

 TemperatureHumidityPressure
High72 °F (Aug 28, 2:50 PM)100% (Aug 23, 7:20 AM)30.12 "Hg (Aug 23, 7:20 AM)
Low45 °F (Aug 24, 4:20 AM)43% (Aug 27, 4:20 PM)29.68 "Hg (Aug 18, 4:20 AM)
Average56 °F76%29.94 "Hg
* Reported Aug 17 7:20 PM — Sep 1 7:50 PM, Rietberg, Weather by CustomWeather, © 2014

Note: Actual official high and low records may vary slightly from our data, if they occured in-between our weather recording intervals... More about our weather records

Advertising

Rietberg weather history for previous 24 hours

 ConditionsComfort  
Time TempWeatherWind HumidityBarometerVisibility
7:50 PM
Sep 1
57 °FSprinkles. Broken clouds.6 mph82%30.12 "HgN/A
7:20 PM61 °FScattered showers. Scattered clouds.2 mph72%30.12 "HgN/A
6:50 PM61 °FScattered showers. Scattered clouds.3 mph68%30.12 "HgN/A
6:20 PM61 °FSunny.6 mph68%30.12 "Hg10 mi
5:50 PM61 °FSunny.7 mph68%30.12 "Hg10 mi
5:20 PM61 °FSunny.7 mph63%30.12 "Hg10 mi
4:50 PM61 °FSunny.7 mph68%30.12 "Hg10 mi
4:20 PM61 °FScattered clouds.8 mph68%30.12 "HgN/A
3:50 PM63 °FScattered clouds.8 mph64%30.12 "HgN/A
3:20 PM61 °FScattered clouds.9 mph68%30.12 "HgN/A
2:50 PM61 °FScattered clouds.7 mph68%30.12 "HgN/A
2:20 PM61 °FScattered clouds.8 mph72%30.12 "HgN/A
1:50 PM59 °FScattered clouds.8 mph82%30.12 "HgN/A
1:20 PM59 °FPartly sunny.8 mph88%30.12 "Hg4 mi
12:50 PM57 °FFog.8 mph94%30.12 "Hg3 mi
12:20 PM55 °FFog.7 mph100%30.12 "Hg2 mi
11:50 AM54 °FDrizzle. Fog.6 mph100%30.12 "Hg1 mi
11:20 AM54 °FDrizzle. Fog.7 mph100%30.12 "Hg1 mi
10:50 AM54 °FDrizzle. Fog.6 mph100%30.12 "Hg1 mi
10:20 AM54 °FDrizzle. Fog.8 mph100%30.12 "Hg1 mi
9:50 AM54 °FFog.7 mph94%30.09 "Hg1 mi
9:20 AM52 °FFog.6 mph100%30.09 "Hg1 mi
8:50 AM52 °FFog.6 mph100%30.09 "Hg0 mi
8:20 AM52 °FFog.6 mph100%30.09 "Hg0 mi
7:50 AM52 °FFog.6 mph100%30.09 "Hg1 mi
7:20 AM52 °FFog.6 mph100%30.09 "Hg1 mi
6:50 AM52 °FFog.6 mph100%30.09 "Hg1 mi
6:20 AM52 °FFog.7 mph100%30.09 "Hg2 mi
5:50 AM52 °FPassing clouds.6 mph100%30.07 "Hg4 mi
5:20 AM52 °FPassing clouds.5 mph100%30.07 "Hg4 mi
4:50 AM52 °FPassing clouds.3 mph100%30.07 "Hg4 mi
4:20 AM52 °FPassing clouds.3 mph100%30.07 "Hg5 mi
11:50 PM
Aug 31
52 °FPassing clouds.5 mph100%30.04 "HgN/A
11:20 PM52 °FClear.3 mph100%30.01 "Hg10 mi
10:50 PM52 °FPassing clouds.5 mph94%30.01 "HgN/A
10:20 PM54 °FPassing clouds.5 mph94%30.01 "HgN/A
9:50 PM54 °FPassing clouds.5 mph88%30.01 "HgN/A
9:20 PM54 °FPassing clouds.5 mph88%30.01 "HgN/A
8:50 PM54 °FScattered clouds.5 mph94%29.98 "HgN/A
8:20 PM54 °FSunny.5 mph94%29.98 "Hg10 mi
Weather by CustomWeather, © 2014

See weather overviewHow to use our weather pages